Wetterdaten: Montag, 14.12.2015
Datum Zeit Temp. A. Feuchte A. Luftdruck Regen Wind Richtung Richtung Sonnenschein ET UV Solar Taupunkt Windchill Windben Empfang
14.12.2015 00:00 4,8 C 92 % 1024,2 hPa 0,0 l/m 1,4 km/h (1 Bft) NO 42 0 min 0,000 mm 0,0 UV-I 0 W/m 3,6 C 4,8 C 3,2 km/h (1 Bft) 99,18 %
14.12.2015 00:05 4,7 C 92 % 1024,1 hPa 0,0 l/m 2,0 km/h (1 Bft) NO 53 0 min 0,000 mm 0,0 UV-I 0 W/m 3,5 C 4,7 C 3,2 km/h (1 Bft) 98,26 %
14.12.2015 00:10 4,8 C 92 % 1024,1 hPa 0,0 l/m 0,5 km/h (0 Bft) O-NO 60 0 min 0,000 mm 0,0 UV-I 0 W/m 3,6 C 4,8 C 1,6 km/h (1 Bft) 100,00 %
14.12.2015 00:15 4,8 C 91 % 1024,1 hPa 0,0 l/m 0,1 km/h (0 Bft) O-NO 60 0 min 0,000 mm 0,0 UV-I 0 W/m 3,5 C 4,8 C 1,6 km/h (1 Bft) 99,16 %
14.12.2015 00:20 4,9 C 90 % 1024,1 hPa 0,0 l/m 0,5 km/h (0 Bft) O-NO 60 0 min 0,000 mm 0,0 UV-I 0 W/m 3,4 C 4,9 C 3,2 km/h (1 Bft) 98,33 %
14.12.2015 00:25 5,0 C 90 % 1024,1 hPa 0,0 l/m 0,2 km/h (0 Bft) O-NO 60 0 min 0,000 mm 0,0 UV-I 0 W/m 3,5 C 5,0 C 1,6 km/h (1 Bft) 95,28 %
14.12.2015 00:30 4,9 C 90 % 1024,0 hPa 0,0 l/m 0,1 km/h (0 Bft) O-NO 60 0 min 0,000 mm 0,0 UV-I 0 W/m 3,4 C 4,9 C 1,6 km/h (1 Bft) 97,50 %
14.12.2015 00:35 5,0 C 89 % 1024,0 hPa 0,0 l/m 0,3 km/h (0 Bft) O-NO 69 0 min 0,000 mm 0,0 UV-I 0 W/m 3,3 C 5,0 C 1,6 km/h (1 Bft) 97,46 %
14.12.2015 00:40 4,9 C 90 % 1024,0 hPa 0,0 l/m 0,2 km/h (0 Bft) O-NO 69 0 min 0,000 mm 0,0 UV-I 0 W/m 3,4 C 4,9 C 1,6 km/h (1 Bft) 95,76 %
14.12.2015 00:45 4,9 C 90 % 1024,0 hPa 0,0 l/m 1,2 km/h (1 Bft) O 82 0 min 0,000 mm 0,0 UV-I 0 W/m 3,4 C 4,9 C 3,2 km/h (1 Bft) 96,58 %
14.12.2015 00:50 4,8 C 91 % 1024,0 hPa 0,0 l/m 0,8 km/h (0 Bft) O 82 0 min 0,000 mm 0,0 UV-I 0 W/m 3,5 C 4,8 C 3,2 km/h (1 Bft) 96,61 %
14.12.2015 00:55 4,8 C 90 % 1023,9 hPa 0,0 l/m 0,9 km/h (0 Bft) O 95 0 min 0,000 mm 0,0 UV-I 0 W/m 3,3 C 4,8 C 3,2 km/h (1 Bft) 97,52 %
14.12.2015 01:00 4,8 C 90 % 1023,8 hPa 0,0 l/m 1,2 km/h (1 Bft) O 95 0 min 0,000 mm 0,0 UV-I 0 W/m 3,3 C 4,8 C 3,2 km/h (1 Bft) 98,29 %
14.12.2015 01:05 4,8 C 90 % 1023,7 hPa 0,0 l/m 0,4 km/h (0 Bft) O 95 0 min 0,000 mm 0,0 UV-I 0 W/m 3,3 C 4,8 C 1,6 km/h (1 Bft) 97,46 %
14.12.2015 01:10 4,8 C 91 % 1023,7 hPa 0,0 l/m 1,1 km/h (1 Bft) SO 137 0 min 0,000 mm 0,0 UV-I 0 W/m 3,5 C 4,8 C 3,2 km/h (1 Bft) 96,58 %
14.12.2015 01:15 4,8 C 90 % 1023,7 hPa 0,0 l/m 2,3 km/h (1 Bft) S-SO 157 0 min 0,000 mm 0,0 UV-I 0 W/m 3,3 C 4,8 C 4,8 km/h (1 Bft) 98,31 %
14.12.2015 01:20 4,9 C 90 % 1023,8 hPa 0,0 l/m 1,0 km/h (0 Bft) S-SO 157 0 min 0,000 mm 0,0 UV-I 0 W/m 3,4 C 4,9 C 3,2 km/h (1 Bft) 99,15 %
14.12.2015 01:25 4,8 C 91 % 1023,8 hPa 0,0 l/m 0,2 km/h (0 Bft) S-SO 157 0 min 0,000 mm 0,0 UV-I 0 W/m 3,5 C 4,8 C 1,6 km/h (1 Bft) 100,00 %
14.12.2015 01:30 4,7 C 92 % 1023,8 hPa 0,0 l/m 1,3 km/h (1 Bft) S-SO 157 0 min 0,000 mm 0,0 UV-I 0 W/m 3,5 C 4,7 C 3,2 km/h (1 Bft) 99,17 %
14.12.2015 01:35 4,7 C 91 % 1023,8 hPa 0,0 l/m 1,2 km/h (1 Bft) S-SO 157 0 min 0,000 mm 0,0 UV-I 0 W/m 3,4 C 4,7 C 3,2 km/h (1 Bft) 97,52 %
14.12.2015 01:40 4,7 C 91 % 1023,8 hPa 0,0 l/m 1,6 km/h (1 Bft) S-SO 157 0 min 0,000 mm 0,0 UV-I 0 W/m 3,4 C 4,7 C 3,2 km/h (1 Bft) 98,20 %
14.12.2015 01:45 4,7 C 91 % 1023,7 hPa 0,0 l/m 1,3 km/h (1 Bft) S-SO 157 0 min 0,000 mm 0,0 UV-I 0 W/m 3,4 C 4,7 C 3,2 km/h (1 Bft) 100,00 %
14.12.2015 01:50 4,7 C 91 % 1023,8 hPa 0,0 l/m 0,1 km/h (0 Bft) S-SO 157 0 min 0,000 mm 0,0 UV-I 0 W/m 3,4 C 4,7 C 1,6 km/h (1 Bft) 99,15 %
14.12.2015 01:55 4,7 C 91 % 1023,8 hPa 0,0 l/m 0,1 km/h (0 Bft) S-SO 157 0 min 0,000 mm 0,0 UV-I 0 W/m 3,4 C 4,7 C 1,6 km/h (1 Bft) 100,00 %
14.12.2015 02:00 4,7 C 91 % 1023,8 hPa 0,0 l/m 0,3 km/h (0 Bft) S-SO 157 0 min 0,000 mm 0,0 UV-I 0 W/m 3,4 C 4,7 C 1,6 km/h (1 Bft) 99,08 %
14.12.2015 02:05 4,7 C 90 % 1023,8 hPa 0,0 l/m 0,9 km/h (0 Bft) S-SO 157 0 min 0,000 mm 0,0 UV-I 0 W/m 3,2 C 4,7 C 3,2 km/h (1 Bft) 99,15 %
14.12.2015 02:10 4,6 C 91 % 1023,8 hPa 0,0 l/m 0,0 km/h (0 Bft) S-SO 157 0 min 0,000 mm 0,0 UV-I 0 W/m 3,3 C 4,6 C 1,6 km/h (1 Bft) 100,00 %
14.12.2015 02:15 4,6 C 92 % 1023,8 hPa 0,0 l/m 0,0 km/h (0 Bft) S-SO 157 0 min 0,000 mm 0,0 UV-I 0 W/m 3,4 C 4,6 C 1,6 km/h (1 Bft) 100,00 %
14.12.2015 02:20 4,4 C 93 % 1023,8 hPa 0,0 l/m 0,0 km/h (0 Bft) S-SO 157 0 min 0,000 mm 0,0 UV-I 0 W/m 3,4 C 4,4 C 0,0 km/h (0 Bft) 99,15 %
14.12.2015 02:25 4,4 C 93 % 1023,7 hPa 0,0 l/m 0,9 km/h (0 Bft) S-SO 157 0 min 0,000 mm 0,0 UV-I 0 W/m 3,4 C 4,4 C 3,2 km/h (1 Bft) 98,35 %
14.12.2015 02:30 4,4 C 93 % 1023,7 hPa 0,0 l/m 1,4 km/h (1 Bft) S-SO 157 0 min 0,000 mm 0,0 UV-I 0 W/m 3,4 C 4,4 C 3,2 km/h (1 Bft) 96,58 %
14.12.2015 02:35 4,3 C 93 % 1023,7 hPa 0,0 l/m 0,1 km/h (0 Bft) S-SO 157 0 min 0,000 mm 0,0 UV-I 0 W/m 3,3 C 4,3 C 1,6 km/h (1 Bft) 97,46 %
14.12.2015 02:40 4,3 C 93 % 1023,7 hPa 0,0 l/m 0,5 km/h (0 Bft) S-SO 157 0 min 0,000 mm 0,0 UV-I 0 W/m 3,3 C 4,3 C 1,6 km/h (1 Bft) 96,33 %
14.12.2015 02:45 4,3 C 93 % 1023,7 hPa 0,0 l/m 0,0 km/h (0 Bft) S-SO 157 0 min 0,000 mm 0,0 UV-I 0 W/m 3,3 C 4,3 C 0,0 km/h (0 Bft) 97,50 %
14.12.2015 02:50 4,3 C 93 % 1023,7 hPa 0,0 l/m 0,0 km/h (0 Bft) S-SO 157 0 min 0,000 mm 0,0 UV-I 0 W/m 3,3 C 4,3 C 0,0 km/h (0 Bft) 95,04 %
14.12.2015 02:55 4,3 C 93 % 1023,6 hPa 0,0 l/m 0,0 km/h (0 Bft) S-SO 157 0 min 0,000 mm 0,0 UV-I 0 W/m 3,3 C 4,3 C 1,6 km/h (1 Bft) 98,17 %
14.12.2015 03:00 4,2 C 94 % 1023,6 hPa 0,0 l/m 0,4 km/h (0 Bft) S-SO 157 0 min 0,000 mm 0,0 UV-I 0 W/m 3,3 C 4,2 C 1,6 km/h (1 Bft) 97,50 %
14.12.2015 03:05 4,2 C 94 % 1023,6 hPa 0,0 l/m 0,0 km/h (0 Bft) S-SO 157 0 min 0,000 mm 0,0 UV-I 0 W/m 3,3 C 4,2 C 1,6 km/h (1 Bft) 96,61 %
14.12.2015 03:10 4,2 C 94 % 1023,7 hPa 0,0 l/m 0,0 km/h (0 Bft) S-SO 157 0 min 0,000 mm 0,0 UV-I 0 W/m 3,3 C 4,2 C 0,0 km/h (0 Bft) 99,15 %
14.12.2015 03:15 4,1 C 94 % 1023,7 hPa 0,0 l/m 0,0 km/h (0 Bft) S-SO 157 0 min 0,000 mm 0,0 UV-I 0 W/m 3,2 C 4,1 C 0,0 km/h (0 Bft) 98,31 %
14.12.2015 03:20 4,1 C 94 % 1023,7 hPa 0,0 l/m 0,0 km/h (0 Bft) S-SO 157 0 min 0,000 mm 0,0 UV-I 0 W/m 3,2 C 4,1 C 1,6 km/h (1 Bft) 99,15 %
14.12.2015 03:25 4,2 C 94 % 1023,6 hPa 0,0 l/m 1,2 km/h (1 Bft) S-SO 157 0 min 0,000 mm 0,0 UV-I 0 W/m 3,3 C 4,2 C 3,2 km/h (1 Bft) 99,17 %
14.12.2015 03:30 4,3 C 92 % 1023,6 hPa 0,0 l/m 0,9 km/h (0 Bft) S-SO 157 0 min 0,000 mm 0,0 UV-I 0 W/m 3,1 C 4,3 C 3,2 km/h (1 Bft) 99,15 %
14.12.2015 03:35 4,2 C 93 % 1023,6 hPa 0,0 l/m 1,0 km/h (0 Bft) S-SO 157 0 min 0,000 mm 0,0 UV-I 0 W/m 3,2 C 4,2 C 1,6 km/h (1 Bft) 99,15 %
14.12.2015 03:40 4,0 C 94 % 1023,5 hPa 0,0 l/m 0,0 km/h (0 Bft) S-SO 157 0 min 0,000 mm 0,0 UV-I 0 W/m 3,1 C 4,0 C 1,6 km/h (1 Bft) 100,00 %
14.12.2015 03:45 4,1 C 94 % 1023,6 hPa 0,0 l/m 0,0 km/h (0 Bft) S-SO 157 0 min 0,000 mm 0,0 UV-I 0 W/m 3,2 C 4,1 C 0,0 km/h (0 Bft) 100,00 %
14.12.2015 03:50 4,1 C 93 % 1023,5 hPa 0,0 l/m 0,3 km/h (0 Bft) S-SO 157 0 min 0,000 mm 0,0 UV-I 0 W/m 3,1 C 4,1 C 1,6 km/h (1 Bft) 100,00 %
14.12.2015 03:55 4,1 C 93 % 1023,5 hPa 0,0 l/m 0,1 km/h (0 Bft) S-SO 157 0 min 0,000 mm 0,0 UV-I 0 W/m 3,1 C 4,1 C 1,6 km/h (1 Bft) 97,44 %
14.12.2015 04:00 4,2 C 92 % 1023,5 hPa 0,0 l/m 2,7 km/h (1 Bft) O-NO 59 0 min 0,000 mm 0,0 UV-I 0 W/m 3,0 C 4,2 C 4,8 km/h (1 Bft) 99,19 %
14.12.2015 04:05 4,3 C 92 % 1023,5 hPa 0,0 l/m 2,8 km/h (1 Bft) NO 41 0 min 0,000 mm 0,0 UV-I 0 W/m 3,1 C 4,3 C 4,8 km/h (1 Bft) 98,98 %
14.12.2015 04:10 4,3 C 93 % 1023,6 hPa 0,0 l/m 3,8 km/h (1 Bft) N-NO 28 0 min 0,000 mm 0,0 UV-I 0 W/m 3,3 C 4,3 C 4,8 km/h (1 Bft) 98,39 %
14.12.2015 04:15 4,3 C 93 % 1023,6 hPa 0,0 l/m 3,7 km/h (1 Bft) NO 35 0 min 0,000 mm 0,0 UV-I 0 W/m 3,3 C 4,3 C 6,4 km/h (2 Bft) 100,00 %
14.12.2015 04:20 4,3 C 93 % 1023,6 hPa 0,0 l/m 3,0 km/h (1 Bft) NO 40 0 min 0,000 mm 0,0 UV-I 0 W/m 3,3 C 4,3 C 4,8 km/h (1 Bft) 98,20 %
14.12.2015 04:25 4,3 C 92 % 1023,6 hPa 0,0 l/m 2,7 km/h (1 Bft) NO 51 0 min 0,000 mm 0,0 UV-I 0 W/m 3,1 C 4,3 C 4,8 km/h (1 Bft) 99,15 %
14.12.2015 04:30 4,3 C 90 % 1023,6 hPa 0,0 l/m 2,0 km/h (1 Bft) O-NO 57 0 min 0,000 mm 0,0 UV-I 0 W/m 2,8 C 4,3 C 4,8 km/h (1 Bft) 99,17 %
14.12.2015 04:35 4,3 C 90 % 1023,6 hPa 0,0 l/m 2,6 km/h (1 Bft) O-NO 57 0 min 0,000 mm 0,0 UV-I 0 W/m 2,8 C 4,3 C 4,8 km/h (1 Bft) 96,61 %
14.12.2015 04:40 4,3 C 90 % 1023,7 hPa 0,0 l/m 2,1 km/h (1 Bft) O-NO 57 0 min 0,000 mm 0,0 UV-I 0 W/m 2,8 C 4,3 C 3,2 km/h (1 Bft) 97,52 %
14.12.2015 04:45 4,2 C 91 % 1023,7 hPa 0,0 l/m 0,9 km/h (0 Bft) O-NO 57 0 min 0,000 mm 0,0 UV-I 0 W/m 2,9 C 4,2 C 1,6 km/h (1 Bft) 96,58 %
14.12.2015 04:50 4,0 C 92 % 1023,6 hPa 0,0 l/m 0,2 km/h (0 Bft) O-NO 57 0 min 0,000 mm 0,0 UV-I 0 W/m 2,8 C 4,0 C 1,6 km/h (1 Bft) 96,61 %
14.12.2015 04:55 4,0 C 92 % 1023,6 hPa 0,0 l/m 0,1 km/h (0 Bft) O-NO 57 0 min 0,000 mm 0,0 UV-I 0 W/m 2,8 C 4,0 C 1,6 km/h (1 Bft) 97,46 %
14.12.2015 05:00 3,9 C 91 % 1023,6 hPa 0,0 l/m 0,3 km/h (0 Bft) O-NO 57 0 min 0,000 mm 0,0 UV-I 0 W/m 2,6 C 3,9 C 3,2 km/h (1 Bft) 97,44 %
14.12.2015 05:05 3,8 C 92 % 1023,6 hPa 0,0 l/m 0,7 km/h (0 Bft) O-NO 57 0 min 0,000 mm 0,0 UV-I 0 W/m 2,6 C 3,8 C 3,2 km/h (1 Bft) 94,34 %
14.12.2015 05:10 3,8 C 92 % 1023,6 hPa 0,0 l/m 0,4 km/h (0 Bft) O-NO 58 0 min 0,000 mm 0,0 UV-I 0 W/m 2,6 C 3,8 C 1,6 km/h (1 Bft) 98,35 %
14.12.2015 05:15 3,8 C 91 % 1023,5 hPa 0,0 l/m 1,3 km/h (1 Bft) SO 142 0 min 0,000 mm 0,0 UV-I 0 W/m 2,5 C 3,8 C 3,2 km/h (1 Bft) 97,44 %
14.12.2015 05:20 3,8 C 92 % 1023,6 hPa 0,0 l/m 1,3 km/h (1 Bft) SO 146 0 min 0,000 mm 0,0 UV-I 0 W/m 2,6 C 3,8 C 4,8 km/h (1 Bft) 98,31 %
14.12.2015 05:25 3,8 C 92 % 1023,6 hPa 0,0 l/m 0,7 km/h (0 Bft) SO 146 0 min 0,000 mm 0,0 UV-I 0 W/m 2,6 C 3,8 C 3,2 km/h (1 Bft) 98,29 %
14.12.2015 05:30 3,6 C 94 % 1023,6 hPa 0,0 l/m 0,7 km/h (0 Bft) SO 146 0 min 0,000 mm 0,0 UV-I 0 W/m 2,7 C 3,6 C 1,6 km/h (1 Bft) 99,15 %
14.12.2015 05:35 3,5 C 94 % 1023,6 hPa 0,0 l/m 0,2 km/h (0 Bft) SO 146 0 min 0,000 mm 0,0 UV-I 0 W/m 2,6 C 3,5 C 1,6 km/h (1 Bft) 98,31 %
14.12.2015 05:40 3,4 C 94 % 1023,6 hPa 0,0 l/m 0,0 km/h (0 Bft) SO 146 0 min 0,000 mm 0,0 UV-I 0 W/m 2,5 C 3,4 C 0,0 km/h (0 Bft) 98,29 %
14.12.2015 05:45 3,3 C 94 % 1023,6 hPa 0,0 l/m 0,1 km/h (0 Bft) SO 146 0 min 0,000 mm 0,0 UV-I 0 W/m 2,4 C 3,3 C 1,6 km/h (1 Bft) 99,15 %
14.12.2015 05:50 3,2 C 94 % 1023,6 hPa 0,0 l/m 0,1 km/h (0 Bft) SO 146 0 min 0,000 mm 0,0 UV-I 0 W/m 2,3 C 3,2 C 1,6 km/h (1 Bft) 98,29 %
14.12.2015 05:55 3,2 C 94 % 1023,6 hPa 0,0 l/m 0,0 km/h (0 Bft) SO 146 0 min 0,000 mm 0,0 UV-I 0 W/m 2,3 C 3,2 C 0,0 km/h (0 Bft) 99,17 %
14.12.2015 06:00 3,0 C 94 % 1023,6 hPa 0,0 l/m 1,0 km/h (0 Bft) SO 146 0 min 0,000 mm 0,0 UV-I 0 W/m 2,1 C 3,0 C 3,2 km/h (1 Bft) 97,46 %
14.12.2015 06:05 2,9 C 94 % 1023,7 hPa 0,0 l/m 0,3 km/h (0 Bft) SO 146 0 min 0,000 mm 0,0 UV-I 0 W/m 2,0 C 2,9 C 1,6 km/h (1 Bft) 100,00 %
14.12.2015 06:10 2,9 C 94 % 1023,7 hPa 0,0 l/m 0,2 km/h (0 Bft) SO 146 0 min 0,000 mm 0,0 UV-I 0 W/m 2,0 C 2,9 C 1,6 km/h (1 Bft) 100,00 %
14.12.2015 06:15 2,9 C 94 % 1023,6 hPa 0,0 l/m 0,0 km/h (0 Bft) SO 146 0 min 0,000 mm 0,0 UV-I 0 W/m 2,0 C 2,9 C 0,0 km/h (0 Bft) 99,15 %
14.12.2015 06:20 2,9 C 94 % 1023,6 hPa 0,0 l/m 0,0 km/h (0 Bft) SO 146 0 min 0,000 mm 0,0 UV-I 0 W/m 2,0 C 2,9 C 0,0 km/h (0 Bft) 99,10 %
14.12.2015 06:25 2,9 C 94 % 1023,6 hPa 0,0 l/m 0,0 km/h (0 Bft) SO 146 0 min 0,000 mm 0,0 UV-I 0 W/m 2,0 C 2,9 C 0,0 km/h (0 Bft) 97,46 %
14.12.2015 06:30 2,8 C 94 % 1023,6 hPa 0,0 l/m 0,4 km/h (0 Bft) SO 146 0 min 0,000 mm 0,0 UV-I 0 W/m 1,9 C 2,8 C 1,6 km/h (1 Bft) 99,17 %
14.12.2015 06:35 2,7 C 94 % 1023,6 hPa 0,0 l/m 0,9 km/h (0 Bft) SO 146 0 min 0,000 mm 0,0 UV-I 0 W/m 1,8 C 2,7 C 1,6 km/h (1 Bft) 99,17 %
14.12.2015 06:40 2,7 C 95 % 1023,6 hPa 0,0 l/m 0,9 km/h (0 Bft) SO 146 0 min 0,000 mm 0,0 UV-I 0 W/m 2,0 C 2,7 C 1,6 km/h (1 Bft) 96,23 %
14.12.2015 06:45 2,6 C 94 % 1023,6 hPa 0,0 l/m 1,3 km/h (1 Bft) SO 146 0 min 0,000 mm 0,0 UV-I 0 W/m 1,7 C 2,6 C 3,2 km/h (1 Bft) 95,16 %
14.12.2015 06:50 2,6 C 94 % 1023,6 hPa 0,0 l/m 0,5 km/h (0 Bft) SO 146 0 min 0,000 mm 0,0 UV-I 0 W/m 1,7 C 2,6 C 1,6 km/h (1 Bft) 97,52 %
14.12.2015 06:55 2,6 C 93 % 1023,6 hPa 0,0 l/m 0,0 km/h (0 Bft) SO 146 0 min 0,000 mm 0,0 UV-I 0 W/m 1,6 C 2,6 C 1,6 km/h (1 Bft) 96,61 %
14.12.2015 07:00 2,7 C 92 % 1023,7 hPa 0,0 l/m 0,3 km/h (0 Bft) SO 146 0 min 0,000 mm 0,0 UV-I 0 W/m 1,5 C 2,7 C 1,6 km/h (1 Bft) 96,30 %
14.12.2015 07:05 2,7 C 93 % 1023,8 hPa 0,0 l/m 0,2 km/h (0 Bft) SO 146 0 min 0,000 mm 0,0 UV-I 0 W/m 1,7 C 2,7 C 1,6 km/h (1 Bft) 95,76 %
14.12.2015 07:10 2,6 C 94 % 1023,9 hPa 0,0 l/m 1,0 km/h (0 Bft) O 80 0 min 0,000 mm 0,0 UV-I 0 W/m 1,7 C 2,6 C 8,0 km/h (2 Bft) 97,46 %
14.12.2015 07:15 2,8 C 93 % 1023,9 hPa 0,0 l/m 6,6 km/h (2 Bft) O 98 0 min 0,000 mm 0,0 UV-I 0 W/m 1,8 C 2,6 C 12,9 km/h (3 Bft) 94,02 %
14.12.2015 07:20 3,0 C 92 % 1023,8 hPa 0,0 l/m 9,9 km/h (2 Bft) O-NO 74 0 min 0,000 mm 0,0 UV-I 0 W/m 1,8 C -0,1 C 19,3 km/h (3 Bft) 98,35 %
14.12.2015 07:25 3,1 C 92 % 1023,8 hPa 0,0 l/m 9,9 km/h (2 Bft) O-NO 73 0 min 0,000 mm 0,0 UV-I 0 W/m 1,9 C 0,0 C 19,3 km/h (3 Bft) 97,44 %
14.12.2015 07:30 3,1 C 92 % 1023,8 hPa 0,0 l/m 11,4 km/h (2 Bft) O-NO 74 0 min 0,000 mm 0,0 UV-I 0 W/m 1,9 C -1,0 C 17,7 km/h (3 Bft) 99,17 %
14.12.2015 07:35 3,0 C 92 % 1023,8 hPa 0,0 l/m 10,8 km/h (2 Bft) O 88 0 min 0,000 mm 0,0 UV-I 0 W/m 1,8 C -0,7 C 17,7 km/h (3 Bft) 97,46 %
14.12.2015 07:40 2,9 C 92 % 1023,8 hPa 0,0 l/m 9,2 km/h (2 Bft) O 88 0 min 0,000 mm 0,0 UV-I 0 W/m 1,7 C 0,4 C 16,1 km/h (3 Bft) 98,29 %
14.12.2015 07:45 2,9 C 93 % 1023,8 hPa 0,0 l/m 8,2 km/h (2 Bft) O-NO 60 0 min 0,000 mm 0,0 UV-I 2 W/m 1,9 C 1,2 C 16,1 km/h (3 Bft) 97,17 %
14.12.2015 07:50 2,8 C 93 % 1023,8 hPa 0,0 l/m 8,1 km/h (2 Bft) O-NO 76 0 min 0,000 mm 0,0 UV-I 5 W/m 1,8 C 1,2 C 16,1 km/h (3 Bft) 99,19 %
14.12.2015 07:55 2,8 C 93 % 1023,9 hPa 0,0 l/m 11,0 km/h (2 Bft) O-NO 70 0 min 0,000 mm 0,0 UV-I 10 W/m 1,8 C -1,1 C 17,7 km/h (3 Bft) 96,69 %
14.12.2015 08:00 2,8 C 93 % 1023,9 hPa 0,0 l/m 10,3 km/h (2 Bft) O 80 5 min 0,000 mm 0,0 UV-I 16 W/m 1,8 C -0,6 C 16,1 km/h (3 Bft) 99,15 %
14.12.2015 08:05 2,7 C 93 % 1023,9 hPa 0,0 l/m 8,5 km/h (2 Bft) NO 53 5 min 0,000 mm 0,0 UV-I 21 W/m 1,7 C 0,7 C 16,1 km/h (3 Bft) 99,10 %
14.12.2015 08:10 2,7 C 93 % 1023,9 hPa 0,0 l/m 7,2 km/h (2 Bft) NO 53 5 min 0,000 mm 0,0 UV-I 26 W/m 1,7 C 1,9 C 12,9 km/h (3 Bft) 100,00 %
14.12.2015 08:15 2,7 C 93 % 1023,9 hPa 0,0 l/m 10,8 km/h (2 Bft) O-NO 78 0 min 0,000 mm 0,0 UV-I 28 W/m 1,7 C -1,1 C 16,1 km/h (3 Bft) 97,25 %
14.12.2015 08:20 2,7 C 93 % 1024,0 hPa 0,0 l/m 10,6 km/h (2 Bft) O-NO 77 0 min 0,000 mm 0,0 UV-I 34 W/m 1,7 C -0,9 C 17,7 km/h (3 Bft) 100,00 %
14.12.2015 08:25 2,7 C 93 % 1024,0 hPa 0,0 l/m 9,5 km/h (2 Bft) O-NO 71 0 min 0,000 mm 0,0 UV-I 41 W/m 1,7 C -0,1 C 14,5 km/h (3 Bft) 99,15 %
14.12.2015 08:30 2,7 C 93 % 1024,0 hPa 0,0 l/m 11,8 km/h (2 Bft) O 87 0 min 0,000 mm 0,0 UV-I 46 W/m 1,7 C -1,8 C 17,7 km/h (3 Bft) 96,67 %
14.12.2015 08:35 2,7 C 93 % 1024,1 hPa 0,0 l/m 7,1 km/h (2 Bft) O 84 0 min 0,000 mm 0,0 UV-I 53 W/m 1,7 C 2,0 C 16,1 km/h (3 Bft) 98,17 %
14.12.2015 08:40 2,8 C 93 % 1024,1 hPa 0,0 l/m 8,7 km/h (2 Bft) O-NO 74 5 min 0,000 mm 0,0 UV-I 61 W/m 1,8 C 0,7 C 14,5 km/h (3 Bft) 98,31 %
14.12.2015 08:45 2,8 C 92 % 1024,1 hPa 0,0 l/m 10,2 km/h (2 Bft) O-NO 71 5 min 0,000 mm 0,0 UV-I 69 W/m 1,6 C -0,5 C 17,7 km/h (3 Bft) 97,37 %
14.12.2015 08:50 2,9 C 92 % 1024,1 hPa 0,0 l/m 11,0 km/h (2 Bft) O 98 5 min 0,000 mm 0,0 UV-I 72 W/m 1,7 C -1,0 C 16,1 km/h (3 Bft) 95,97 %
14.12.2015 08:55 2,9 C 92 % 1024,1 hPa 0,0 l/m 12,5 km/h (3 Bft) O 83 0 min 0,000 mm 0,0 UV-I 72 W/m 1,7 C -2,0 C 19,3 km/h (3 Bft) 95,87 %
14.12.2015 09:00 2,9 C 92 % 1024,1 hPa 0,0 l/m 12,5 km/h (3 Bft) O-NO 67 0 min 0,000 mm 0,0 UV-I 78 W/m 1,7 C -2,0 C 19,3 km/h (3 Bft) 97,14 %
14.12.2015 09:05 2,9 C 92 % 1024,1 hPa 0,0 l/m 11,5 km/h (2 Bft) O-NO 66 0 min 0,025 mm 0,0 UV-I 82 W/m 1,7 C -1,3 C 17,7 km/h (3 Bft) 97,58 %
14.12.2015 09:10 2,9 C 92 % 1024,1 hPa 0,0 l/m 12,8 km/h (3 Bft) O-NO 71 0 min 0,000 mm 0,0 UV-I 83 W/m 1,7 C -2,2 C 17,7 km/h (3 Bft) 96,61 %
14.12.2015 09:15 2,9 C 92 % 1024,1 hPa 0,0 l/m 11,5 km/h (2 Bft) O-NO 66 0 min 0,000 mm 0,0 UV-I 77 W/m 1,7 C -1,3 C 17,7 km/h (3 Bft) 97,44 %
14.12.2015 09:20 2,9 C 92 % 1024,1 hPa 0,0 l/m 11,6 km/h (2 Bft) O-NO 57 0 min 0,000 mm 0,0 UV-I 79 W/m 1,7 C -1,4 C 17,7 km/h (3 Bft) 98,21 %
14.12.2015 09:25 2,9 C 93 % 1024,2 hPa 0,0 l/m 9,4 km/h (2 Bft) NO 53 0 min 0,000 mm 0,0 UV-I 83 W/m 1,9 C 0,2 C 16,1 km/h (3 Bft) 98,29 %
14.12.2015 09:30 2,9 C 92 % 1024,3 hPa 0,0 l/m 9,7 km/h (2 Bft) O-NO 59 0 min 0,000 mm 0,0 UV-I 75 W/m 1,7 C -0,0 C 14,5 km/h (3 Bft) 99,17 %
14.12.2015 09:35 2,9 C 93 % 1024,3 hPa 0,0 l/m 10,0 km/h (2 Bft) O-NO 71 0 min 0,000 mm 0,0 UV-I 76 W/m 1,9 C -0,2 C 16,1 km/h (3 Bft) 99,15 %
14.12.2015 09:40 2,9 C 93 % 1024,4 hPa 0,0 l/m 10,0 km/h (2 Bft) O-NO 71 0 min 0,000 mm 0,0 UV-I 67 W/m 1,9 C -0,2 C 17,7 km/h (3 Bft) 98,33 %
14.12.2015 09:45 2,9 C 93 % 1024,4 hPa 0,0 l/m 12,2 km/h (2 Bft) O-NO 77 0 min 0,000 mm 0,0 UV-I 76 W/m 1,9 C -1,8 C 19,3 km/h (3 Bft) 99,15 %
14.12.2015 09:50 2,9 C 93 % 1024,4 hPa 0,0 l/m 11,2 km/h (2 Bft) O 81 0 min 0,000 mm 0,0 UV-I 101 W/m 1,9 C -1,1 C 17,7 km/h (3 Bft) 100,00 %
14.12.2015 09:55 3,0 C 93 % 1024,5 hPa 0,0 l/m 11,0 km/h (2 Bft) NO 42 0 min 0,000 mm 0,0 UV-I 95 W/m 2,0 C -0,9 C 17,7 km/h (3 Bft) 100,00 %
14.12.2015 10:00 2,9 C 93 % 1024,4 hPa 0,0 l/m 10,9 km/h (2 Bft) O-NO 67 0 min 0,026 mm 0,0 UV-I 81 W/m 1,9 C -0,9 C 16,1 km/h (3 Bft) 99,15 %
14.12.2015 10:05 2,9 C 93 % 1024,4 hPa 0,0 l/m 12,7 km/h (3 Bft) O 79 0 min 0,000 mm 0,0 UV-I 89 W/m 1,9 C -2,1 C 19,3 km/h (3 Bft) 97,44 %
14.12.2015 10:10 2,9 C 93 % 1024,4 hPa 0,0 l/m 13,1 km/h (3 Bft) O-NO 77 0 min 0,000 mm 0,0 UV-I 90 W/m 1,9 C -2,4 C 17,7 km/h (3 Bft) 100,00 %
14.12.2015 10:15 2,9 C 93 % 1024,4 hPa 0,0 l/m 11,7 km/h (2 Bft) O 88 0 min 0,000 mm 0,0 UV-I 105 W/m 1,9 C -1,5 C 20,9 km/h (4 Bft) 99,15 %
14.12.2015 10:20 3,0 C 94 % 1024,4 hPa 0,0 l/m 11,4 km/h (2 Bft) O 96 0 min 0,000 mm 0,0 UV-I 114 W/m 2,1 C -1,1 C 17,7 km/h (3 Bft) 99,12 %
14.12.2015 10:25 3,0 C 93 % 1024,4 hPa 0,0 l/m 12,0 km/h (2 Bft) O-SO 103 0 min 0,000 mm 0,0 UV-I 105 W/m 2,0 C -1,5 C 22,5 km/h (4 Bft) 99,17 %
14.12.2015 10:30 2,9 C 93 % 1024,3 hPa 0,0 l/m 13,5 km/h (3 Bft) NO 41 0 min 0,000 mm 0,0 UV-I 93 W/m 1,9 C -2,6 C 20,9 km/h (4 Bft) 100,00 %
14.12.2015 10:35 2,9 C 94 % 1024,3 hPa 0,0 l/m 12,9 km/h (3 Bft) O-NO 61 0 min 0,000 mm 0,0 UV-I 93 W/m 2,0 C -2,2 C 19,3 km/h (3 Bft) 98,17 %
14.12.2015 10:40 3,0 C 94 % 1024,3 hPa 0,0 l/m 10,0 km/h (2 Bft) NO 54 0 min 0,000 mm 0,0 UV-I 111 W/m 2,1 C -0,1 C 17,7 km/h (3 Bft) 97,46 %
14.12.2015 10:45 3,1 C 94 % 1024,3 hPa 0,0 l/m 10,4 km/h (2 Bft) O-NO 70 0 min 0,000 mm 0,0 UV-I 122 W/m 2,2 C -0,3 C 16,1 km/h (3 Bft) 97,17 %
14.12.2015 10:50 3,1 C 94 % 1024,3 hPa 0,0 l/m 10,9 km/h (2 Bft) NO 55 0 min 0,000 mm 0,0 UV-I 113 W/m 2,2 C -0,7 C 16,1 km/h (3 Bft) 96,97 %
14.12.2015 10:55 3,2 C 94 % 1024,2 hPa 0,0 l/m 9,8 km/h (2 Bft) O-NO 57 0 min 0,000 mm 0,0 UV-I 122 W/m 2,3 C 0,2 C 17,7 km/h (3 Bft) 97,46 %
14.12.2015 11:00 3,2 C 93 % 1024,2 hPa 0,0 l/m 12,6 km/h (3 Bft) O-NO 74 0 min 0,051 mm 0,0 UV-I 119 W/m 2,2 C -1,7 C 19,3 km/h (3 Bft) 96,67 %
14.12.2015 11:05 3,2 C 94 % 1024,1 hPa 0,0 l/m 12,2 km/h (2 Bft) O 82 0 min 0,000 mm 0,0 UV-I 139 W/m 2,3 C -1,4 C 17,7 km/h (3 Bft) 96,23 %
14.12.2015 11:10 3,4 C 94 % 1024,1 hPa 0,0 l/m 7,9 km/h (2 Bft) NO 49 0 min 0,000 mm 0,0 UV-I 149 W/m 2,5 C 2,0 C 14,5 km/h (3 Bft) 97,58 %
14.12.2015 11:15 3,4 C 94 % 1024,2 hPa 0,0 l/m 11,1 km/h (2 Bft) NO 46 0 min 0,000 mm 0,0 UV-I 133 W/m 2,5 C -0,5 C 17,7 km/h (3 Bft) 100,00 %
14.12.2015 11:20 3,4 C 94 % 1024,2 hPa 0,0 l/m 10,6 km/h (2 Bft) O-NO 65 0 min 0,000 mm 0,0 UV-I 161 W/m 2,5 C -0,1 C 16,1 km/h (3 Bft) 98,39 %
14.12.2015 11:25 3,4 C 94 % 1024,1 hPa 0,0 l/m 11,0 km/h (2 Bft) NO 43 0 min 0,000 mm 0,0 UV-I 170 W/m 2,5 C -0,4 C 20,9 km/h (4 Bft) 98,29 %
14.12.2015 11:30 3,4 C 93 % 1024,0 hPa 0,0 l/m 14,7 km/h (3 Bft) O-NO 59 0 min 0,000 mm 0,0 UV-I 145 W/m 2,4 C -2,7 C 20,9 km/h (4 Bft) 99,17 %
14.12.2015 11:35 3,4 C 93 % 1024,0 hPa 0,0 l/m 11,6 km/h (2 Bft) O-NO 66 0 min 0,000 mm 0,0 UV-I 133 W/m 2,4 C -0,8 C 19,3 km/h (3 Bft) 100,00 %
14.12.2015 11:40 3,4 C 94 % 1023,9 hPa 0,0 l/m 12,7 km/h (3 Bft) O 80 0 min 0,000 mm 0,0 UV-I 125 W/m 2,5 C -1,5 C 17,7 km/h (3 Bft) 99,15 %
14.12.2015 11:45 3,4 C 93 % 1023,8 hPa 0,0 l/m 12,8 km/h (3 Bft) O-NO 75 0 min 0,000 mm 0,0 UV-I 136 W/m 2,4 C -1,6 C 19,3 km/h (3 Bft) 98,17 %
14.12.2015 11:50 3,5 C 93 % 1023,9 hPa 0,0 l/m 9,7 km/h (2 Bft) NO 40 0 min 0,000 mm 0,0 UV-I 130 W/m 2,5 C 0,6 C 16,1 km/h (3 Bft) 98,37 %
14.12.2015 11:55 3,6 C 93 % 1023,8 hPa 0,0 l/m 11,7 km/h (2 Bft) NO 47 0 min 0,000 mm 0,0 UV-I 103 W/m 2,6 C -0,7 C 17,7 km/h (3 Bft) 97,46 %
14.12.2015 12:00 3,6 C 93 % 1023,7 hPa 0,0 l/m 11,8 km/h (2 Bft) NO 51 0 min 0,050 mm 0,0 UV-I 97 W/m 2,6 C -0,7 C 19,3 km/h (3 Bft) 100,00 %
14.12.2015 12:05 3,6 C 93 % 1023,7 hPa 0,0 l/m 11,5 km/h (2 Bft) NO 44 0 min 0,000 mm 0,0 UV-I 92 W/m 2,6 C -0,5 C 19,3 km/h (3 Bft) 100,00 %
14.12.2015 12:10 3,6 C 93 % 1023,7 hPa 0,0 l/m 12,5 km/h (3 Bft) NO 46 0 min 0,000 mm 0,0 UV-I 91 W/m 2,6 C -1,2 C 19,3 km/h (3 Bft) 99,15 %
14.12.2015 12:15 3,6 C 93 % 1023,7 hPa 0,0 l/m 12,6 km/h (3 Bft) O-NO 63 0 min 0,000 mm 0,0 UV-I 80 W/m 2,6 C -1,2 C 19,3 km/h (3 Bft) 98,35 %
14.12.2015 12:20 3,4 C 93 % 1023,7 hPa 0,0 l/m 13,5 km/h (3 Bft) O-NO 76 0 min 0,000 mm 0,0 UV-I 95 W/m 2,4 C -2,0 C 20,9 km/h (4 Bft) 98,33 %
14.12.2015 12:25 3,5 C 93 % 1023,6 hPa 0,0 l/m 13,1 km/h (3 Bft) NO 48 0 min 0,000 mm 0,0 UV-I 94 W/m 2,5 C -1,7 C 20,9 km/h (4 Bft) 99,08 %
14.12.2015 12:30 3,5 C 93 % 1023,6 hPa 0,0 l/m 12,7 km/h (3 Bft) NO 45 0 min 0,000 mm 0,0 UV-I 99 W/m 2,5 C -1,4 C 22,5 km/h (4 Bft) 99,15 %
14.12.2015 12:35 3,7 C 93 % 1023,6 hPa 0,0 l/m 12,4 km/h (3 Bft) NO 37 0 min 0,000 mm 0,0 UV-I 96 W/m 2,7 C -1,0 C 24,1 km/h (4 Bft) 97,56 %
14.12.2015 12:40 3,7 C 93 % 1023,6 hPa 0,0 l/m 13,1 km/h (3 Bft) N-NO 23 0 min 0,000 mm 0,0 UV-I 88 W/m 2,7 C -1,4 C 19,3 km/h (3 Bft) 95,87 %
14.12.2015 12:45 3,7 C 93 % 1023,6 hPa 0,0 l/m 12,4 km/h (3 Bft) NO 51 0 min 0,000 mm 0,0 UV-I 78 W/m 2,7 C -1,0 C 19,3 km/h (3 Bft) 97,17 %
14.12.2015 12:50 3,7 C 92 % 1023,6 hPa 0,0 l/m 13,4 km/h (3 Bft) NO 40 0 min 0,000 mm 0,0 UV-I 84 W/m 2,5 C -1,6 C 19,3 km/h (3 Bft) 96,75 %
14.12.2015 12:55 3,7 C 93 % 1023,6 hPa 0,0 l/m 13,8 km/h (3 Bft) O-NO 64 0 min 0,000 mm 0,0 UV-I 94 W/m 2,7 C -1,8 C 19,3 km/h (3 Bft) 96,61 %
14.12.2015 13:00 3,7 C 93 % 1023,6 hPa 0,0 l/m 14,1 km/h (3 Bft) N 5 0 min 0,051 mm 0,0 UV-I 84 W/m 2,7 C -2,0 C 20,9 km/h (4 Bft) 97,44 %
14.12.2015 13:05 3,7 C 92 % 1023,6 hPa 0,0 l/m 15,1 km/h (3 Bft) NO 38 0 min 0,000 mm 0,0 UV-I 75 W/m 2,5 C -2,6 C 22,5 km/h (4 Bft) 96,61 %
14.12.2015 13:10 3,8 C 92 % 1023,5 hPa 0,0 l/m 9,7 km/h (2 Bft) O-NO 58 0 min 0,000 mm 0,0 UV-I 80 W/m 2,6 C 1,0 C 17,7 km/h (3 Bft) 97,46 %
14.12.2015 13:15 3,8 C 92 % 1023,6 hPa 0,0 l/m 11,4 km/h (2 Bft) O 86 0 min 0,000 mm 0,0 UV-I 78 W/m 2,6 C -0,2 C 19,3 km/h (3 Bft) 99,17 %
14.12.2015 13:20 3,8 C 92 % 1023,6 hPa 0,0 l/m 15,0 km/h (3 Bft) NO 55 0 min 0,000 mm 0,0 UV-I 83 W/m 2,6 C -2,4 C 20,9 km/h (4 Bft) 99,06 %
14.12.2015 13:25 3,8 C 92 % 1023,6 hPa 0,0 l/m 13,9 km/h (3 Bft) O-NO 58 0 min 0,000 mm 0,0 UV-I 80 W/m 2,6 C -1,8 C 19,3 km/h (3 Bft) 99,17 %
14.12.2015 13:30 3,9 C 92 % 1023,6 hPa 0,0 l/m 12,4 km/h (3 Bft) N-NO 30 0 min 0,000 mm 0,0 UV-I 70 W/m 2,7 C -0,8 C 20,9 km/h (4 Bft) 99,15 %
14.12.2015 13:35 3,9 C 92 % 1023,5 hPa 0,0 l/m 10,1 km/h (2 Bft) NO 34 0 min 0,000 mm 0,0 UV-I 68 W/m 2,7 C 0,8 C 17,7 km/h (3 Bft) 100,00 %
14.12.2015 13:40 3,9 C 91 % 1023,5 hPa 0,0 l/m 13,9 km/h (3 Bft) O-NO 77 0 min 0,000 mm 0,0 UV-I 79 W/m 2,6 C -1,7 C 20,9 km/h (4 Bft) 99,15 %
14.12.2015 13:45 3,8 C 91 % 1023,6 hPa 0,0 l/m 13,6 km/h (3 Bft) O-NO 66 0 min 0,000 mm 0,0 UV-I 77 W/m 2,5 C -1,6 C 20,9 km/h (4 Bft) 100,00 %
14.12.2015 13:50 3,8 C 91 % 1023,5 hPa 0,0 l/m 11,7 km/h (2 Bft) O 80 0 min 0,000 mm 0,0 UV-I 67 W/m 2,5 C -0,4 C 16,1 km/h (3 Bft) 99,19 %
14.12.2015 13:55 3,9 C 92 % 1023,4 hPa 0,0 l/m 11,5 km/h (2 Bft) O-NO 62 0 min 0,000 mm 0,0 UV-I 63 W/m 2,7 C -0,2 C 22,5 km/h (4 Bft) 99,17 %
14.12.2015 14:00 3,9 C 91 % 1023,4 hPa 0,0 l/m 13,3 km/h (3 Bft) NO 43 0 min 0,026 mm 0,0 UV-I 55 W/m 2,6 C -1,3 C 20,9 km/h (4 Bft) 100,00 %
14.12.2015 14:05 3,9 C 91 % 1023,5 hPa 0,0 l/m 15,2 km/h (3 Bft) O-NO 65 0 min 0,000 mm 0,0 UV-I 48 W/m 2,6 C -2,4 C 22,5 km/h (4 Bft) 97,50 %
14.12.2015 14:10 3,9 C 92 % 1023,5 hPa 0,0 l/m 12,3 km/h (3 Bft) O-NO 58 0 min 0,000 mm 0,0 UV-I 45 W/m 2,7 C -0,7 C 17,7 km/h (3 Bft) 100,00 %
14.12.2015 14:15 3,9 C 92 % 1023,4 hPa 0,0 l/m 14,0 km/h (3 Bft) O 90 0 min 0,000 mm 0,0 UV-I 47 W/m 2,7 C -1,7 C 20,9 km/h (4 Bft) 99,19 %
14.12.2015 14:20 3,8 C 92 % 1023,4 hPa 0,0 l/m 14,6 km/h (3 Bft) O-NO 66 0 min 0,000 mm 0,0 UV-I 48 W/m 2,6 C -2,2 C 22,5 km/h (4 Bft) 99,07 %
14.12.2015 14:25 3,8 C 92 % 1023,4 hPa 0,0 l/m 16,7 km/h (3 Bft) NO 50 0 min 0,000 mm 0,0 UV-I 48 W/m 2,6 C -3,2 C 22,5 km/h (4 Bft) 99,15 %
14.12.2015 14:30 3,8 C 92 % 1023,4 hPa 0,0 l/m 12,4 km/h (3 Bft) NO 55 0 min 0,000 mm 0,0 UV-I 41 W/m 2,6 C -0,9 C 20,9 km/h (4 Bft) 98,35 %
14.12.2015 14:35 3,8 C 92 % 1023,4 hPa 0,0 l/m 15,6 km/h (3 Bft) O-NO 68 0 min 0,000 mm 0,0 UV-I 35 W/m 2,6 C -2,7 C 22,5 km/h (4 Bft) 97,44 %
14.12.2015 14:40 3,7 C 92 % 1023,4 hPa 0,0 l/m 13,1 km/h (3 Bft) O 79 0 min 0,000 mm 0,0 UV-I 34 W/m 2,5 C -1,4 C 22,5 km/h (4 Bft) 96,61 %
14.12.2015 14:45 3,7 C 92 % 1023,4 hPa 0,0 l/m 11,1 km/h (2 Bft) O 83 0 min 0,000 mm 0,0 UV-I 34 W/m 2,5 C -0,1 C 19,3 km/h (3 Bft) 98,29 %
14.12.2015 14:50 3,7 C 92 % 1023,4 hPa 0,0 l/m 10,8 km/h (2 Bft) O 89 0 min 0,000 mm 0,0 UV-I 34 W/m 2,5 C 0,1 C 16,1 km/h (3 Bft) 94,92 %
14.12.2015 14:55 3,7 C 92 % 1023,4 hPa 0,0 l/m 9,3 km/h (2 Bft) O 83 0 min 0,000 mm 0,0 UV-I 29 W/m 2,5 C 1,2 C 14,5 km/h (3 Bft) 96,61 %
14.12.2015 15:00 3,8 C 92 % 1023,5 hPa 0,0 l/m 9,0 km/h (2 Bft) O 86 0 min 0,025 mm 0,0 UV-I 28 W/m 2,6 C 1,5 C 12,9 km/h (3 Bft) 96,40 %
14.12.2015 15:05 3,8 C 92 % 1023,5 hPa 0,0 l/m 11,4 km/h (2 Bft) NO 38 0 min 0,000 mm 0,0 UV-I 26 W/m 2,6 C -0,2 C 17,7 km/h (3 Bft) 97,46 %
14.12.2015 15:10 3,8 C 92 % 1023,5 hPa 0,0 l/m 9,7 km/h (2 Bft) NO 55 0 min 0,000 mm 0,0 UV-I 22 W/m 2,6 C 1,0 C 16,1 km/h (3 Bft) 97,52 %
14.12.2015 15:15 3,8 C 92 % 1023,4 hPa 0,0 l/m 10,1 km/h (2 Bft) NO 51 0 min 0,000 mm 0,0 UV-I 19 W/m 2,6 C 0,7 C 16,1 km/h (3 Bft) 100,00 %
14.12.2015 15:20 3,8 C 92 % 1023,5 hPa 0,0 l/m 10,0 km/h (2 Bft) O-NO 78 0 min 0,000 mm 0,0 UV-I 17 W/m 2,6 C 0,7 C 16,1 km/h (3 Bft) 98,31 %
14.12.2015 15:25 3,8 C 92 % 1023,6 hPa 0,0 l/m 9,9 km/h (2 Bft) NO 43 0 min 0,000 mm 0,0 UV-I 16 W/m 2,6 C 0,8 C 16,1 km/h (3 Bft) 98,33 %
14.12.2015 15:30 3,8 C 92 % 1023,6 hPa 0,0 l/m 11,2 km/h (2 Bft) NO 41 0 min 0,000 mm 0,0 UV-I 13 W/m 2,6 C -0,1 C 17,7 km/h (3 Bft) 97,52 %
14.12.2015 15:35 3,8 C 92 % 1023,6 hPa 0,0 l/m 9,7 km/h (2 Bft) O-NO 60 0 min 0,000 mm 0,0 UV-I 11 W/m 2,6 C 1,0 C 17,7 km/h (3 Bft) 100,00 %
14.12.2015 15:40 3,9 C 92 % 1023,6 hPa 0,0 l/m 8,8 km/h (2 Bft) NO 46 0 min 0,000 mm 0,0 UV-I 9 W/m 2,7 C 1,8 C 17,7 km/h (3 Bft) 98,20 %
14.12.2015 15:45 3,8 C 92 % 1023,7 hPa 0,0 l/m 8,2 km/h (2 Bft) O-NO 65 0 min 0,000 mm 0,0 UV-I 7 W/m 2,6 C 2,2 C 12,9 km/h (3 Bft) 98,31 %
14.12.2015 15:50 3,8 C 92 % 1023,7 hPa 0,0 l/m 10,2 km/h (2 Bft) O-NO 76 0 min 0,000 mm 0,0 UV-I 7 W/m 2,6 C 0,6 C 16,1 km/h (3 Bft) 99,15 %
14.12.2015 15:55 3,8 C 92 % 1023,7 hPa 0,0 l/m 7,5 km/h (2 Bft) O-NO 58 0 min 0,000 mm 0,0 UV-I 5 W/m 2,6 C 2,8 C 12,9 km/h (3 Bft) 100,00 %
14.12.2015 16:00 3,8 C 92 % 1023,7 hPa 0,0 l/m 7,6 km/h (2 Bft) O-NO 78 0 min 0,000 mm 0,0 UV-I 5 W/m 2,6 C 2,7 C 16,1 km/h (3 Bft) 99,13 %
14.12.2015 16:05 3,8 C 92 % 1023,7 hPa 0,0 l/m 10,8 km/h (2 Bft) O-NO 76 0 min 0,000 mm 0,0 UV-I 0 W/m 2,6 C 0,2 C 17,7 km/h (3 Bft) 99,15 %
14.12.2015 16:10 3,8 C 92 % 1023,8 hPa 0,0 l/m 8,1 km/h (2 Bft) NO 45 0 min 0,000 mm 0,0 UV-I 0 W/m 2,6 C 2,3 C 14,5 km/h (3 Bft) 99,08 %
14.12.2015 16:15 3,8 C 92 % 1023,8 hPa 0,0 l/m 8,8 km/h (2 Bft) O-NO 78 0 min 0,000 mm 0,0 UV-I 0 W/m 2,6 C 1,7 C 12,9 km/h (3 Bft) 97,52 %
14.12.2015 16:20 3,8 C 92 % 1023,8 hPa 0,0 l/m 12,6 km/h (3 Bft) O-NO 57 0 min 0,000 mm 0,0 UV-I 0 W/m 2,6 C -1,0 C 17,7 km/h (3 Bft) 98,29 %
14.12.2015 16:25 3,8 C 92 % 1023,8 hPa 0,0 l/m 11,6 km/h (2 Bft) NO 48 0 min 0,000 mm 0,0 UV-I 0 W/m 2,6 C -0,4 C 17,7 km/h (3 Bft) 99,15 %
14.12.2015 16:30 3,8 C 92 % 1023,8 hPa 0,0 l/m 10,0 km/h (2 Bft) NO 48 0 min 0,000 mm 0,0 UV-I 0 W/m 2,6 C 0,7 C 19,3 km/h (3 Bft) 99,17 %
14.12.2015 16:35 3,7 C 92 % 1023,8 hPa 0,0 l/m 10,3 km/h (2 Bft) O-NO 67 0 min 0,000 mm 0,0 UV-I 0 W/m 2,5 C 0,4 C 17,7 km/h (3 Bft) 97,44 %
14.12.2015 16:40 3,8 C 92 % 1023,8 hPa 0,0 l/m 12,8 km/h (3 Bft) NO 54 0 min 0,000 mm 0,0 UV-I 0 W/m 2,6 C -1,1 C 24,1 km/h (4 Bft) 97,46 %
14.12.2015 16:45 3,7 C 92 % 1023,9 hPa 0,0 l/m 12,5 km/h (3 Bft) O 82 0 min 0,000 mm 0,0 UV-I 0 W/m 2,5 C -1,1 C 19,3 km/h (3 Bft) 98,17 %
14.12.2015 16:50 3,7 C 92 % 1024,0 hPa 0,0 l/m 8,8 km/h (2 Bft) NO 48 0 min 0,000 mm 0,0 UV-I 0 W/m 2,5 C 1,6 C 14,5 km/h (3 Bft) 96,64 %
14.12.2015 16:55 3,7 C 92 % 1024,2 hPa 0,0 l/m 10,0 km/h (2 Bft) O-NO 74 0 min 0,000 mm 0,0 UV-I 0 W/m 2,5 C 0,6 C 16,1 km/h (3 Bft) 96,69 %
14.12.2015 17:00 3,7 C 92 % 1024,3 hPa 0,0 l/m 8,6 km/h (2 Bft) O-NO 74 0 min 0,000 mm 0,0 UV-I 0 W/m 2,5 C 1,7 C 12,9 km/h (3 Bft) 95,87 %
14.12.2015 17:05 3,6 C 92 % 1024,3 hPa 0,0 l/m 7,5 km/h (2 Bft) NO 53 0 min 0,000 mm 0,0 UV-I 0 W/m 2,4 C 2,6 C 14,5 km/h (3 Bft) 97,44 %
14.12.2015 17:10 3,6 C 92 % 1024,3 hPa 0,0 l/m 7,7 km/h (2 Bft) O-NO 74 0 min 0,000 mm 0,0 UV-I 0 W/m 2,4 C 2,4 C 14,5 km/h (3 Bft) 97,30 %
14.12.2015 17:15 3,6 C 92 % 1024,4 hPa 0,0 l/m 6,8 km/h (2 Bft) O-NO 78 0 min 0,000 mm 0,0 UV-I 0 W/m 2,4 C 3,2 C 12,9 km/h (3 Bft) 98,37 %
14.12.2015 17:20 3,5 C 93 % 1024,4 hPa 0,0 l/m 5,4 km/h (1 Bft) O 84 0 min 0,000 mm 0,0 UV-I 0 W/m 2,5 C 3,5 C 8,0 km/h (2 Bft) 99,10 %
14.12.2015 17:25 3,5 C 93 % 1024,4 hPa 0,0 l/m 7,7 km/h (2 Bft) O 87 0 min 0,000 mm 0,0 UV-I 0 W/m 2,5 C 2,3 C 14,5 km/h (3 Bft) 95,76 %
14.12.2015 17:30 3,5 C 93 % 1024,4 hPa 0,0 l/m 7,0 km/h (2 Bft) O-SO 104 0 min 0,000 mm 0,0 UV-I 0 W/m 2,5 C 2,9 C 12,9 km/h (3 Bft) 100,00 %
14.12.2015 17:35 3,5 C 93 % 1024,5 hPa 0,0 l/m 8,8 km/h (2 Bft) O 83 0 min 0,000 mm 0,0 UV-I 0 W/m 2,5 C 1,4 C 14,5 km/h (3 Bft) 99,15 %
14.12.2015 17:40 3,5 C 93 % 1024,6 hPa 0,0 l/m 6,7 km/h (2 Bft) NO 56 0 min 0,000 mm 0,0 UV-I 0 W/m 2,5 C 3,2 C 11,3 km/h (2 Bft) 96,58 %
14.12.2015 17:45 3,5 C 93 % 1024,7 hPa 0,0 l/m 5,9 km/h (2 Bft) O-NO 74 0 min 0,000 mm 0,0 UV-I 0 W/m 2,5 C 3,5 C 12,9 km/h (3 Bft) 99,11 %
14.12.2015 17:50 3,4 C 93 % 1024,8 hPa 0,0 l/m 6,5 km/h (2 Bft) O-SO 121 0 min 0,000 mm 0,0 UV-I 0 W/m 2,4 C 3,3 C 12,9 km/h (3 Bft) 100,00 %
14.12.2015 17:55 3,4 C 93 % 1024,9 hPa 0,0 l/m 5,9 km/h (2 Bft) O 83 0 min 0,000 mm 0,0 UV-I 0 W/m 2,4 C 3,4 C 11,3 km/h (2 Bft) 100,00 %
14.12.2015 18:00 3,4 C 93 % 1024,9 hPa 0,0 l/m 3,9 km/h (1 Bft) O 90 0 min 0,000 mm 0,0 UV-I 0 W/m 2,4 C 3,4 C 6,4 km/h (2 Bft) 100,00 %
14.12.2015 18:05 3,4 C 93 % 1024,9 hPa 0,0 l/m 4,2 km/h (1 Bft) O-NO 69 0 min 0,000 mm 0,0 UV-I 0 W/m 2,4 C 3,4 C 6,4 km/h (2 Bft) 97,44 %
14.12.2015 18:10 3,4 C 93 % 1025,0 hPa 0,0 l/m 5,0 km/h (1 Bft) O-NO 74 0 min 0,000 mm 0,0 UV-I 0 W/m 2,4 C 3,4 C 8,0 km/h (2 Bft) 98,31 %
14.12.2015 18:15 3,4 C 93 % 1025,0 hPa 0,0 l/m 2,9 km/h (1 Bft) O-SO 123 0 min 0,000 mm 0,0 UV-I 0 W/m 2,4 C 3,4 C 6,4 km/h (2 Bft) 100,00 %
14.12.2015 18:20 3,4 C 93 % 1025,0 hPa 0,0 l/m 2,6 km/h (1 Bft) SO 124 0 min 0,000 mm 0,0 UV-I 0 W/m 2,4 C 3,4 C 4,8 km/h (1 Bft) 98,33 %
14.12.2015 18:25 3,3 C 94 % 1025,0 hPa 0,0 l/m 4,1 km/h (1 Bft) O-SO 113 0 min 0,000 mm 0,0 UV-I 0 W/m 2,4 C 3,3 C 9,7 km/h (2 Bft) 99,08 %
14.12.2015 18:30 3,3 C 94 % 1025,1 hPa 0,0 l/m 5,8 km/h (2 Bft) O-SO 109 0 min 0,000 mm 0,0 UV-I 0 W/m 2,4 C 3,3 C 11,3 km/h (2 Bft) 100,00 %
14.12.2015 18:35 3,3 C 94 % 1025,0 hPa 0,0 l/m 6,8 km/h (2 Bft) O-SO 119 0 min 0,000 mm 0,0 UV-I 0 W/m 2,4 C 2,9 C 12,9 km/h (3 Bft) 99,15 %
14.12.2015 18:40 3,3 C 94 % 1024,9 hPa 0,0 l/m 7,7 km/h (2 Bft) O-SO 118 0 min 0,000 mm 0,0 UV-I 0 W/m 2,4 C 2,1 C 12,9 km/h (3 Bft) 99,17 %
14.12.2015 18:45 3,3 C 94 % 1025,0 hPa 0,0 l/m 6,9 km/h (2 Bft) O 88 0 min 0,000 mm 0,0 UV-I 0 W/m 2,4 C 2,8 C 12,9 km/h (3 Bft) 94,39 %
14.12.2015 18:50 3,3 C 94 % 1025,1 hPa 0,0 l/m 7,5 km/h (2 Bft) O-SO 119 0 min 0,000 mm 0,0 UV-I 0 W/m 2,4 C 2,3 C 11,3 km/h (2 Bft) 96,58 %
14.12.2015 18:55 3,3 C 94 % 1025,2 hPa 0,0 l/m 4,6 km/h (1 Bft) SO 132 0 min 0,000 mm 0,0 UV-I 0 W/m 2,4 C 3,3 C 11,3 km/h (2 Bft) 97,52 %
14.12.2015 19:00 3,3 C 94 % 1025,2 hPa 0,0 l/m 4,0 km/h (1 Bft) O-SO 119 0 min 0,000 mm 0,0 UV-I 0 W/m 2,4 C 3,3 C 6,4 km/h (2 Bft) 96,67 %
14.12.2015 19:05 3,3 C 94 % 1025,1 hPa 0,0 l/m 5,7 km/h (1 Bft) SO 135 0 min 0,000 mm 0,0 UV-I 0 W/m 2,4 C 3,3 C 12,9 km/h (3 Bft) 97,25 %
14.12.2015 19:10 3,3 C 94 % 1025,1 hPa 0,0 l/m 4,0 km/h (1 Bft) O-SO 122 0 min 0,000 mm 0,0 UV-I 0 W/m 2,4 C 3,3 C 8,0 km/h (2 Bft) 96,77 %
14.12.2015 19:15 3,3 C 94 % 1025,2 hPa 0,0 l/m 3,4 km/h (1 Bft) SO 143 0 min 0,000 mm 0,0 UV-I 0 W/m 2,4 C 3,3 C 6,4 km/h (2 Bft) 99,10 %
14.12.2015 19:20 3,3 C 94 % 1025,3 hPa 0,0 l/m 4,5 km/h (1 Bft) SO 130 0 min 0,000 mm 0,0 UV-I 0 W/m 2,4 C 3,3 C 11,3 km/h (2 Bft) 98,31 %
14.12.2015 19:25 3,3 C 94 % 1025,3 hPa 0,0 l/m 4,1 km/h (1 Bft) O-SO 121 0 min 0,000 mm 0,0 UV-I 0 W/m 2,4 C 3,3 C 6,4 km/h (2 Bft) 99,21 %
14.12.2015 19:30 3,3 C 94 % 1025,3 hPa 0,0 l/m 3,1 km/h (1 Bft) SO 140 0 min 0,000 mm 0,0 UV-I 0 W/m 2,4 C 3,3 C 6,4 km/h (2 Bft) 99,06 %
14.12.2015 19:35 3,2 C 94 % 1025,3 hPa 0,0 l/m 4,7 km/h (1 Bft) O-SO 123 0 min 0,000 mm 0,0 UV-I 0 W/m 2,3 C 3,2 C 8,0 km/h (2 Bft) 100,00 %
14.12.2015 19:40 3,3 C 94 % 1025,4 hPa 0,0 l/m 6,0 km/h (2 Bft) O-SO 103 0 min 0,000 mm 0,0 UV-I 0 W/m 2,4 C 3,3 C 11,3 km/h (2 Bft) 100,00 %
14.12.2015 19:45 3,3 C 94 % 1025,3 hPa 0,0 l/m 6,5 km/h (2 Bft) O-SO 113 0 min 0,000 mm 0,0 UV-I 0 W/m 2,4 C 3,2 C 11,3 km/h (2 Bft) 99,16 %
14.12.2015 19:50 3,3 C 94 % 1025,3 hPa 0,0 l/m 8,0 km/h (2 Bft) O-SO 108 0 min 0,000 mm 0,0 UV-I 0 W/m 2,4 C 1,8 C 14,5 km/h (3 Bft) 99,15 %
14.12.2015 19:55 3,3 C 94 % 1025,3 hPa 0,0 l/m 8,6 km/h (2 Bft) O-SO 118 0 min 0,000 mm 0,0 UV-I 0 W/m 2,4 C 1,3 C 12,9 km/h (3 Bft) 100,00 %
14.12.2015 20:00 3,3 C 93 % 1025,4 hPa 0,0 l/m 6,6 km/h (2 Bft) SO 124 0 min 0,000 mm 0,0 UV-I 0 W/m 2,3 C 3,1 C 11,3 km/h (2 Bft) 99,19 %
14.12.2015 20:05 3,3 C 93 % 1025,4 hPa 0,0 l/m 7,1 km/h (2 Bft) S-SO 148 0 min 0,000 mm 0,0 UV-I 0 W/m 2,3 C 2,6 C 12,9 km/h (3 Bft) 98,31 %
14.12.2015 20:10 3,3 C 93 % 1025,5 hPa 0,0 l/m 5,4 km/h (1 Bft) O-SO 121 0 min 0,000 mm 0,0 UV-I 0 W/m 2,3 C 3,3 C 11,3 km/h (2 Bft) 99,19 %
14.12.2015 20:15 3,3 C 93 % 1025,4 hPa 0,0 l/m 8,7 km/h (2 Bft) O-SO 108 0 min 0,000 mm 0,0 UV-I 0 W/m 2,3 C 1,2 C 12,9 km/h (3 Bft) 98,31 %
14.12.2015 20:20 3,3 C 93 % 1025,4 hPa 0,0 l/m 9,0 km/h (2 Bft) O-SO 114 0 min 0,000 mm 0,0 UV-I 0 W/m 2,3 C 1,0 C 12,9 km/h (3 Bft) 98,29 %
14.12.2015 20:25 3,3 C 93 % 1025,4 hPa 0,0 l/m 6,4 km/h (2 Bft) SO 126 0 min 0,000 mm 0,0 UV-I 0 W/m 2,3 C 3,3 C 11,3 km/h (2 Bft) 98,31 %
14.12.2015 20:30 3,3 C 93 % 1025,4 hPa 0,0 l/m 5,6 km/h (1 Bft) O-SO 121 0 min 0,000 mm 0,0 UV-I 0 W/m 2,3 C 3,3 C 9,7 km/h (2 Bft) 99,15 %
14.12.2015 20:35 3,3 C 93 % 1025,5 hPa 0,0 l/m 5,0 km/h (1 Bft) O-SO 112 0 min 0,000 mm 0,0 UV-I 0 W/m 2,3 C 3,3 C 9,7 km/h (2 Bft) 99,07 %
14.12.2015 20:40 3,3 C 92 % 1025,6 hPa 0,0 l/m 5,0 km/h (1 Bft) SO 139 0 min 0,000 mm 0,0 UV-I 0 W/m 2,1 C 3,3 C 11,3 km/h (2 Bft) 96,61 %
14.12.2015 20:45 3,3 C 93 % 1025,6 hPa 0,0 l/m 4,4 km/h (1 Bft) S-SO 148 0 min 0,000 mm 0,0 UV-I 0 W/m 2,3 C 3,3 C 9,7 km/h (2 Bft) 96,61 %
14.12.2015 20:50 3,3 C 93 % 1025,5 hPa 0,0 l/m 3,0 km/h (1 Bft) SO 138 0 min 0,000 mm 0,0 UV-I 0 W/m 2,3 C 3,3 C 6,4 km/h (2 Bft) 97,44 %
14.12.2015 20:55 3,3 C 93 % 1025,6 hPa 0,0 l/m 3,4 km/h (1 Bft) SO 140 0 min 0,000 mm 0,0 UV-I 0 W/m 2,3 C 3,3 C 9,7 km/h (2 Bft) 94,21 %
14.12.2015 21:00 3,3 C 92 % 1025,6 hPa 0,0 l/m 3,4 km/h (1 Bft) S-SO 161 0 min 0,000 mm 0,0 UV-I 0 W/m 2,1 C 3,3 C 8,0 km/h (2 Bft) 98,29 %
14.12.2015 21:05 3,3 C 92 % 1025,6 hPa 0,0 l/m 3,0 km/h (1 Bft) O-SO 117 0 min 0,000 mm 0,0 UV-I 0 W/m 2,1 C 3,3 C 6,4 km/h (2 Bft) 96,33 %
14.12.2015 21:10 3,3 C 92 % 1025,7 hPa 0,0 l/m 3,1 km/h (1 Bft) O-SO 113 0 min 0,000 mm 0,0 UV-I 0 W/m 2,1 C 3,3 C 6,4 km/h (2 Bft) 96,77 %
14.12.2015 21:15 3,3 C 92 % 1025,7 hPa 0,0 l/m 4,4 km/h (1 Bft) O-SO 109 0 min 0,000 mm 0,0 UV-I 0 W/m 2,1 C 3,3 C 11,3 km/h (2 Bft) 98,29 %
14.12.2015 21:20 3,3 C 92 % 1025,7 hPa 0,0 l/m 3,3 km/h (1 Bft) SO 138 0 min 0,000 mm 0,0 UV-I 0 W/m 2,1 C 3,3 C 6,4 km/h (2 Bft) 97,32 %
14.12.2015 21:25 3,3 C 92 % 1025,7 hPa 0,0 l/m 2,4 km/h (1 Bft) SO 140 0 min 0,000 mm 0,0 UV-I 0 W/m 2,1 C 3,3 C 4,8 km/h (1 Bft) 99,15 %
14.12.2015 21:30 3,3 C 92 % 1025,7 hPa 0,0 l/m 3,8 km/h (1 Bft) SO 144 0 min 0,000 mm 0,0 UV-I 0 W/m 2,1 C 3,3 C 6,4 km/h (2 Bft) 97,50 %
14.12.2015 21:35 3,3 C 92 % 1025,7 hPa 0,0 l/m 2,8 km/h (1 Bft) SO 132 0 min 0,000 mm 0,0 UV-I 0 W/m 2,1 C 3,3 C 6,4 km/h (2 Bft) 99,15 %
14.12.2015 21:40 3,3 C 91 % 1025,7 hPa 0,0 l/m 2,5 km/h (1 Bft) SO 144 0 min 0,000 mm 0,0 UV-I 0 W/m 2,0 C 3,3 C 4,8 km/h (1 Bft) 100,00 %
14.12.2015 21:45 3,3 C 91 % 1025,8 hPa 0,0 l/m 3,1 km/h (1 Bft) SO 138 0 min 0,000 mm 0,0 UV-I 0 W/m 2,0 C 3,3 C 6,4 km/h (2 Bft) 100,00 %
14.12.2015 21:50 3,3 C 92 % 1025,8 hPa 0,0 l/m 2,3 km/h (1 Bft) SO 142 0 min 0,000 mm 0,0 UV-I 0 W/m 2,1 C 3,3 C 4,8 km/h (1 Bft) 98,31 %
14.12.2015 21:55 3,3 C 91 % 1025,8 hPa 0,0 l/m 1,5 km/h (1 Bft) SO 144 0 min 0,000 mm 0,0 UV-I 0 W/m 2,0 C 3,3 C 3,2 km/h (1 Bft) 96,75 %
14.12.2015 22:00 3,3 C 91 % 1025,7 hPa 0,0 l/m 2,5 km/h (1 Bft) SO 142 0 min 0,000 mm 0,0 UV-I 0 W/m 2,0 C 3,3 C 4,8 km/h (1 Bft) 97,46 %
14.12.2015 22:05 3,3 C 91 % 1025,8 hPa 0,0 l/m 2,5 km/h (1 Bft) SO 144 0 min 0,000 mm 0,0 UV-I 0 W/m 2,0 C 3,3 C 6,4 km/h (2 Bft) 99,08 %
14.12.2015 22:10 3,3 C 91 % 1025,8 hPa 0,0 l/m 2,3 km/h (1 Bft) SO 144 0 min 0,000 mm 0,0 UV-I 0 W/m 2,0 C 3,3 C 4,8 km/h (1 Bft) 100,00 %
14.12.2015 22:15 3,3 C 91 % 1025,8 hPa 0,0 l/m 1,7 km/h (1 Bft) SO 144 0 min 0,000 mm 0,0 UV-I 0 W/m 2,0 C 3,3 C 4,8 km/h (1 Bft) 77,97 %
14.12.2015 22:20 3,2 C 91 % 1025,8 hPa 0,0 l/m 2,2 km/h (1 Bft) O 86 0 min 0,000 mm 0,0 UV-I 0 W/m 1,9 C 3,2 C 4,8 km/h (1 Bft) 99,15 %
14.12.2015 22:25 3,2 C 92 % 1025,8 hPa 0,0 l/m 1,6 km/h (1 Bft) O-SO 109 0 min 0,000 mm 0,0 UV-I 0 W/m 2,0 C 3,2 C 3,2 km/h (1 Bft) 99,17 %
14.12.2015 22:30 3,2 C 91 % 1025,8 hPa 0,0 l/m 1,9 km/h (1 Bft) O-SO 109 0 min 0,000 mm 0,0 UV-I 0 W/m 1,9 C 3,2 C 3,2 km/h (1 Bft) 97,17 %
14.12.2015 22:35 3,2 C 91 % 1025,8 hPa 0,0 l/m 1,6 km/h (1 Bft) O-SO 109 0 min 0,000 mm 0,0 UV-I 0 W/m 1,9 C 3,2 C 4,8 km/h (1 Bft) 99,17 %
14.12.2015 22:40 3,2 C 91 % 1025,8 hPa 0,0 l/m 0,3 km/h (0 Bft) O-SO 109 0 min 0,000 mm 0,0 UV-I 0 W/m 1,9 C 3,2 C 1,6 km/h (1 Bft) 100,00 %
14.12.2015 22:45 3,2 C 91 % 1025,9 hPa 0,0 l/m 0,2 km/h (0 Bft) O-SO 109 0 min 0,000 mm 0,0 UV-I 0 W/m 1,9 C 3,2 C 1,6 km/h (1 Bft) 96,67 %
14.12.2015 22:50 3,2 C 91 % 1025,9 hPa 0,0 l/m 1,3 km/h (1 Bft) O-SO 109 0 min 0,000 mm 0,0 UV-I 0 W/m 1,9 C 3,2 C 3,2 km/h (1 Bft) 96,61 %
14.12.2015 22:55 3,2 C 92 % 1025,9 hPa 0,0 l/m 2,0 km/h (1 Bft) O-SO 109 0 min 0,000 mm 0,0 UV-I 0 W/m 2,0 C 3,2 C 4,8 km/h (1 Bft) 97,25 %
14.12.2015 23:00 3,2 C 91 % 1025,9 hPa 0,0 l/m 1,0 km/h (0 Bft) SO 146 0 min 0,000 mm 0,0 UV-I 0 W/m 1,9 C 3,2 C 4,8 km/h (1 Bft) 94,87 %
14.12.2015 23:05 3,2 C 91 % 1025,9 hPa 0,0 l/m 1,6 km/h (1 Bft) S-SO 159 0 min 0,000 mm 0,0 UV-I 0 W/m 1,9 C 3,2 C 8,0 km/h (2 Bft) 96,61 %
14.12.2015 23:10 3,2 C 91 % 1025,9 hPa 0,0 l/m 2,2 km/h (1 Bft) SO 137 0 min 0,000 mm 0,0 UV-I 0 W/m 1,9 C 3,2 C 6,4 km/h (2 Bft) 95,87 %
14.12.2015 23:15 3,2 C 91 % 1025,9 hPa 0,0 l/m 2,7 km/h (1 Bft) SO 137 0 min 0,000 mm 0,0 UV-I 0 W/m 1,9 C 3,2 C 4,8 km/h (1 Bft) 96,58 %
14.12.2015 23:20 3,2 C 91 % 1025,9 hPa 0,0 l/m 3,5 km/h (1 Bft) SO 127 0 min 0,000 mm 0,0 UV-I 0 W/m 1,9 C 3,2 C 8,0 km/h (2 Bft) 99,17 %
14.12.2015 23:25 3,2 C 90 % 1026,0 hPa 0,0 l/m 2,4 km/h (1 Bft) O 99 0 min 0,000 mm 0,0 UV-I 0 W/m 1,7 C 3,2 C 6,4 km/h (2 Bft) 99,06 %
14.12.2015 23:30 3,2 C 89 % 1026,1 hPa 0,0 l/m 2,0 km/h (1 Bft) O-SO 107 0 min 0,000 mm 0,0 UV-I 0 W/m 1,6 C 3,2 C 6,4 km/h (2 Bft) 98,29 %
14.12.2015 23:35 3,2 C 90 % 1026,0 hPa 0,0 l/m 3,0 km/h (1 Bft) O-SO 119 0 min 0,000 mm 0,0 UV-I 0 W/m 1,7 C 3,2 C 9,7 km/h (2 Bft) 98,33 %
14.12.2015 23:40 3,2 C 90 % 1025,9 hPa 0,0 l/m 5,0 km/h (1 Bft) S 177 0 min 0,000 mm 0,0 UV-I 0 W/m 1,7 C 3,2 C 9,7 km/h (2 Bft) 100,00 %
14.12.2015 23:45 3,2 C 90 % 1025,9 hPa 0,0 l/m 2,5 km/h (1 Bft) S-SO 165 0 min 0,000 mm 0,0 UV-I 0 W/m 1,7 C 3,2 C 6,4 km/h (2 Bft) 100,00 %
14.12.2015 23:50 3,2 C 90 % 1025,8 hPa 0,0 l/m 4,6 km/h (1 Bft) O-SO 116 0 min 0,000 mm 0,0 UV-I 0 W/m 1,7 C 3,2 C 9,7 km/h (2 Bft) 99,15 %
14.12.2015 23:55 3,2 C 90 % 1025,8 hPa 0,0 l/m 4,1 km/h (1 Bft) O 81 0 min 0,000 mm 0,0 UV-I 0 W/m 1,7 C 3,2 C 6,4 km/h (2 Bft) 97,44 %
_ Min-Zeit 06:45 00:35 13:55 - 02:10 - - - - - - 07:00 14:25 02:20 22:15
Minimum _ 2,6 C 89 % 1023,4 hPa - 0,0 km/h (0 Bft) - - - - - - 1,5 C -3,2 C 0,0 km/h (0 Bft) 77,97 %
_ Max-Zeit 00:25 06:40 23:30 00:00 14:25 - - 08:00 11:00 00:00 11:25 00:00 00:25 12:35 00:10
Maximum _ 5,0 C 95 % 1026,1 hPa 0,0 l/m 16,7 km/h
NO (3 Bft)
- - 5 min 0,051 mm 0,0 UV-I 170 W/m 3,6 C 5,0 C 24,1 km/h
NO (4 Bft)
100,00 %
Durchschnitt _ 3,6 C 92 % 1024,3 hPa #0,0 l/m 6,1 km/h (2 Bft) O-NO - #30 min. #0,254 mm 0,0 UV-I 71 W/m 2,5 C 1,9 C 10,6 km/h (2 Bft) 98,14 %